| time (UTC) | temp F | wind direction | speed MPH | gust MPH | rain 1hr in | rain 24hr in | rain mn in | humidity % | barometer mb |
| 20260901014508 | 59 | 309 | 0.0 | 0.0 | 0.00 | 0.30 | 0.00 | 1 | 1007.7 |
| 20260901013006 | 59 | 309 | 0.0 | 0.0 | 0.00 | 0.30 | 0.00 | 1 | 1007.7 |
| 20260901011600 | 59 | 309 | 0.0 | 0.0 | 0.00 | 0.30 | 0.00 | 1 | 1007.7 |
| 20260901010055 | 59 | 308 | 0.0 | 0.0 | 0.00 | 0.30 | 0.00 | 1 | 1007.7 |
| 20260901004551 | 59 | 288 | 0.0 | 4.0 | 0.00 | 0.31 | 0.00 | 1 | 1007.7 |
| 20260901003046 | 59 | 343 | 0.0 | 3.0 | 0.00 | 0.31 | 0.00 | 1 | 1007.8 |
| 20260901001546 | 59 | 302 | 0.0 | 1.0 | 0.00 | 0.31 | 0.00 | 1 | 1007.8 |
| 20260901000049 | 59 | 302 | 0.0 | 2.0 | 0.00 | 0.31 | 0.00 | 1 | 1007.9 |
| 20260831234545 | 60 | 294 | 0.0 | 7.0 | 0.00 | 0.33 | 0.00 | 1 | 1007.9 |
| 20260831233040 | 59 | 251 | 0.0 | 4.0 | 0.00 | 0.33 | 0.00 | 1 | 1007.9 |
| 20260831231554 | 60 | 330 | 0.0 | 2.0 | 0.00 | 0.33 | 0.00 | 1 | 1008.0 |
| 20260831230033 | 60 | 295 | 0.0 | 2.0 | 0.00 | 0.33 | 0.00 | 1 | 1007.9 |
| 20260831224546 | 60 | 299 | 0.0 | 2.0 | 0.00 | 0.33 | 0.00 | 1 | 1008.0 |
| 20260831223023 | 60 | 163 | 0.0 | 2.0 | 0.00 | 0.33 | 0.00 | 1 | 1007.9 |
| 20260831221518 | 60 | 313 | 0.0 | 2.0 | 0.00 | 0.33 | 0.00 | 1 | 1007.8 |
| 20260831220014 | 60 | 279 | 0.0 | 2.0 | 0.00 | 0.33 | 0.00 | 1 | 1007.9 |
| 20260831214510 | 60 | 286 | 0.0 | 4.0 | 0.00 | 0.33 | 0.00 | 1 | 1007.8 |
| 20260831213005 | 60 | 279 | 0.0 | 2.0 | 0.00 | 0.33 | 0.00 | 1 | 1007.8 |
| 20260831211501 | 60 | 86 | 0.0 | 3.0 | 0.00 | 0.33 | 0.00 | 1 | 1007.7 |
| 20260831204559 | 60 | 286 | 0.0 | 2.0 | 0.00 | 0.33 | 0.33 | 1 | 1007.6 |
| 20260831203056 | 60 | 355 | 0.0 | 2.0 | 0.00 | 0.33 | 0.33 | 1 | 1007.5 |
| 20260831201558 | 60 | 296 | 0.0 | 5.0 | 0.00 | 0.33 | 0.33 | 1 | 1007.3 |
| 20260831200054 | 61 | 288 | 0.0 | 3.0 | 0.00 | 0.33 | 0.33 | 1 | 1007.3 |
| 20260831194600 | 61 | 97 | 0.0 | 10.0 | 0.00 | 0.33 | 0.33 | 1 | 1007.2 |
| 20260831193058 | 61 | 340 | 0.0 | 5.0 | 0.00 | 0.33 | 0.33 | 1 | 1007.2 |
| 20260831191553 | 61 | 300 | 0.0 | 7.0 | 0.00 | 0.33 | 0.33 | 1 | 1007.1 |
| 20260831190053 | 61 | 22 | 0.0 | 7.0 | 0.00 | 0.33 | 0.33 | 1 | 1007.0 |
| 20260831184551 | 61 | 293 | 1.0 | 5.0 | 0.00 | 0.33 | 0.33 | 1 | 1007.0 |
| 20260831183051 | 61 | 284 | 0.0 | 3.0 | 0.00 | 0.33 | 0.33 | 1 | 1007.1 |
| 20260831181551 | 61 | 331 | 0.0 | 10.0 | 0.00 | 0.33 | 0.33 | 1 | 1006.9 |
| 20260831180051 | 61 | 215 | 0.0 | 5.0 | 0.00 | 0.33 | 0.33 | 1 | 1006.8 |
| 20260831174550 | 61 | 290 | 1.0 | 6.0 | 0.00 | 0.33 | 0.33 | 1 | 1006.8 |
| 20260831173049 | 61 | 240 | 0.0 | 6.0 | 0.00 | 0.33 | 0.33 | 1 | 1006.6 |
| 20260831171546 | 61 | 240 | 1.0 | 7.0 | 0.00 | 0.33 | 0.33 | 1 | 1006.6 |
| 20260831170042 | 62 | 207 | 1.0 | 6.0 | 0.00 | 0.33 | 0.33 | 1 | 1006.4 |
| 20260831164537 | 62 | 29 | 0.0 | 5.0 | 0.00 | 0.33 | 0.33 | 1 | 1006.4 |
| 20260831163035 | 62 | 173 | 0.0 | 4.0 | 0.00 | 0.33 | 0.33 | 1 | 1006.3 |
| 20260831161532 | 62 | 279 | 0.0 | 7.0 | 0.00 | 0.33 | 0.33 | 1 | 1006.2 |
| 20260831160030 | 62 | 139 | 0.0 | 5.0 | 0.00 | 0.33 | 0.33 | 1 | 1006.1 |
| 20260831154531 | 62 | 331 | 1.0 | 11.0 | 0.00 | 0.33 | 0.33 | 1 | 1005.9 |
| 20260831153018 | 62 | 292 | 0.0 | 9.0 | 0.00 | 0.33 | 0.33 | 1 | 1005.9 |
| 20260831151511 | 62 | 350 | 0.0 | 9.0 | 0.00 | 0.33 | 0.33 | 1 | 1006.0 |
| 20260831150009 | 63 | 325 | 1.0 | 9.0 | 0.00 | 0.33 | 0.33 | 1 | 1005.8 |
| 20260831144502 | 63 | 308 | 0.0 | 4.0 | 0.00 | 0.33 | 0.33 | 1 | 1005.8 |
| 20260831143108 | 63 | 285 | 1.0 | 8.0 | 0.00 | 0.33 | 0.33 | 1 | 1005.8 |
| 20260831141553 | 63 | 281 | 0.0 | 7.0 | 0.00 | 0.33 | 0.33 | 1 | 1005.7 |
| 20260831140049 | 63 | 46 | 0.0 | 5.0 | 0.00 | 0.33 | 0.33 | 1 | 1005.9 |
| 20260831134549 | 63 | 286 | 0.0 | 8.0 | 0.00 | 0.33 | 0.33 | 1 | 1005.8 |
| 20260831133041 | 63 | 59 | 0.0 | 4.0 | 0.00 | 0.33 | 0.33 | 1 | 1005.6 |
| 20260831131541 | 63 | 288 | 0.0 | 5.0 | 0.00 | 0.33 | 0.33 | 1 | 1005.6 |
| 20260831130037 | 64 | 288 | 0.0 | 5.0 | 0.00 | 0.33 | 0.33 | 1 | 1005.6 |
| 20260831124541 | 63 | 85 | 0.0 | 9.0 | 0.00 | 0.33 | 0.33 | 1 | 1005.5 |
| 20260831123021 | 64 | 69 | 1.0 | 11.0 | 0.02 | 0.33 | 0.33 | 1 | 1005.4 |
| 20260831121517 | 63 | 319 | 0.0 | 9.0 | 0.02 | 0.33 | 0.33 | 1 | 1005.4 |
| 20260831120016 | 63 | 267 | 0.0 | 7.0 | 0.02 | 0.33 | 0.33 | 1 | 1005.4 |
| 20260831114509 | 63 | 61 | 0.0 | 7.0 | 0.02 | 0.33 | 0.33 | 1 | 1005.4 |
| 20260831113004 | 63 | 273 | 0.0 | 4.0 | 0.00 | 0.31 | 0.31 | 1 | 1005.3 |
| 20260831111601 | 63 | 313 | 0.0 | 3.0 | 0.01 | 0.31 | 0.31 | 1 | 1005.3 |
| 20260831110059 | 63 | 306 | 0.0 | 6.0 | 0.01 | 0.31 | 0.31 | 1 | 1005.2 |
| 20260831104553 | 62 | 328 | 0.0 | 4.0 | 0.02 | 0.31 | 0.31 | 1 | 1005.2 |
| 20260831103146 | 62 | 286 | 0.0 | 4.0 | 0.02 | 0.31 | 0.31 | 1 | 1005.1 |
| 20260831101542 | 62 | 124 | 0.0 | 7.0 | 0.02 | 0.31 | 0.31 | 1 | 1005.1 |
| 20260831100056 | 62 | 119 | 0.0 | 4.0 | 0.02 | 0.31 | 0.31 | 1 | 1005.0 |
| 20260831094533 | 62 | 121 | 0.0 | 5.0 | 0.00 | 0.28 | 0.28 | 1 | 1005.1 |
| 20260831093040 | 62 | 327 | 0.0 | 6.0 | 0.00 | 0.28 | 0.28 | 1 | 1005.2 |
| 20260831091524 | 62 | 90 | 0.0 | 4.0 | 0.00 | 0.28 | 0.28 | 1 | 1005.1 |
| 20260831090020 | 62 | 129 | 0.0 | 7.0 | 0.00 | 0.28 | 0.28 | 1 | 1005.2 |
| 20260831084515 | 62 | 62 | 0.0 | 5.0 | 0.00 | 0.31 | 0.28 | 1 | 1005.3 |
| 20260831083011 | 62 | 25 | 0.0 | 3.0 | 0.00 | 0.31 | 0.28 | 1 | 1005.3 |
| 20260831081506 | 61 | 48 | 0.0 | 1.0 | 0.02 | 0.31 | 0.28 | 1 | 1005.4 |
| 20260831080003 | 61 | 147 | 0.0 | 4.0 | 0.06 | 0.31 | 0.28 | 1 | 1005.6 |
| 20260831074558 | 61 | 134 | 0.0 | 4.0 | 0.08 | 0.34 | 0.28 | 1 | 1005.5 |
| 20260831073054 | 61 | 116 | 0.0 | 8.0 | 0.09 | 0.34 | 0.28 | 1 | 1005.7 |
| 20260831071606 | 61 | 146 | 0.0 | 5.0 | 0.11 | 0.32 | 0.28 | 1 | 1005.6 |
| 20260831070045 | 61 | 144 | 0.0 | 4.0 | 0.10 | 0.28 | 0.23 | 1 | 1005.7 |
| 20260831064541 | 61 | 5 | 0.0 | 2.0 | 0.10 | 0.28 | 0.21 | 1 | 1005.7 |
| 20260831063039 | 61 | 89 | 0.0 | 2.0 | 0.13 | 0.27 | 0.20 | 1 | 1005.8 |
| 20260831061534 | 61 | 169 | 0.0 | 4.0 | 0.09 | 0.23 | 0.17 | 1 | 1005.8 |
| 20260831060029 | 61 | 51 | 0.0 | 2.0 | 0.07 | 0.19 | 0.13 | 1 | 1005.9 |
| 20260831054525 | 61 | 132 | 0.0 | 2.0 | 0.06 | 0.17 | 0.10 | 1 | 1006.0 |
| 20260831053040 | 61 | 113 | 0.0 | 1.0 | 0.03 | 0.13 | 0.07 | 1 | 1006.1 |
| 20260831051516 | 61 | 135 | 0.0 | 1.0 | 0.03 | 0.13 | 0.07 | 1 | 1006.2 |
| 20260831050012 | 61 | 162 | 0.0 | 0.0 | 0.02 | 0.12 | 0.06 | 1 | 1006.3 |
| 20260831044511 | 61 | 144 | 0.0 | 1.0 | 0.01 | 0.12 | 0.05 | 1 | 1006.4 |
| 20260831043002 | 61 | 126 | 0.0 | 0.0 | 0.00 | 0.11 | 0.04 | 1 | 1006.6 |
| 20260831041559 | 60 | 126 | 0.0 | 0.0 | 0.00 | 0.11 | 0.04 | 1 | 1006.7 |
| 20260831040055 | 60 | 132 | 0.0 | 0.0 | 0.00 | 0.11 | 0.04 | 1 | 1006.8 |
| 20260831034550 | 60 | 149 | 0.0 | 0.0 | 0.00 | 0.11 | 0.04 | 1 | 1006.8 |
| 20260831033051 | 60 | 150 | 0.0 | 0.0 | 0.00 | 0.11 | 0.04 | 1 | 1006.9 |
| 20260831031541 | 60 | 149 | 0.0 | 0.0 | 0.00 | 0.11 | 0.04 | 1 | 1007.0 |
| 20260831030039 | 60 | 149 | 0.0 | 0.0 | 0.01 | 0.11 | 0.04 | 1 | 1007.1 |
| 20260831024532 | 60 | 150 | 0.0 | 0.0 | 0.01 | 0.12 | 0.04 | 1 | 1007.3 |
| 20260831023035 | 60 | 150 | 0.0 | 0.0 | 0.01 | 0.12 | 0.04 | 1 | 1007.4 |
| 20260831021534 | 60 | 151 | 0.0 | 0.0 | 0.01 | 0.12 | 0.04 | 1 | 1007.5 |
| 20260831020037 | 60 | 68 | 0.0 | 0.0 | 0.00 | 0.11 | 0.03 | 1 | 1007.6 |